STARLINK-3655, 51983

Orbit data source: Space-Track

STARLINK-3655, 51983 is a payload satellite owned by SpaceX/Seattle (US) in LEO that was launched on Wed, 09 Mar 2022 UTC via an FALCON 9 launch vehicle from the Air Force Eastern Test Range (AFETR). Payload-class satellites include a variety of spacecraft equipped with specific instruments for various scientific and technological missions. These include communications satellites like Starlink; space stations such as the ISS; scientific satellites like the Hubble; Earth observation satellites from companies like Planet Labs, Umbra, and HawkEye 360; GPS; miniature CubeSats for education and research; and military/defense satellites.

Loading next visibility...
Identifier
51983, 2022-025AD
Orbit
LEO
Country
Flag of USUS
Related business
Manufacturer
SpaceX/Seattle
Mission
Operational Commercial Communications
Bus & Motor
STARLINK, Unknown motor
Mass
297 kg wet, ~275 kg dry
Launch date (UTC)
2022-03-09 (4 years ago)
Launch vehicle
FALCON 9
Launch site
Air Force Eastern Test Range (AFETR)
Object type
Payload
Rocket body
Debris
Shape & HBR
Box + 1 Pan, 10.1 m
Radar Cross Section
13.562 m², Large (>1 m²)

Expand to show TLE details & history
Last TLE update: 3 days ago

TLE from 3 days ago
0 STARLINK-3655
1 51983U 22025AD  26170.68759617  .00000326  00000-0  38542-4 0  9999
2 51983  53.1602 301.1296 0001107  78.4169 281.6946 15.08836740236459
Epoch: 2026-06-19T16:30Z
TLE epoch observation values (Epoch: 2026-06-19T16:30:08.309Z)
Latitude
-0.00006°
Longitude
145.68195°
Altitude
540.49 km
Speed
7.593 km/s
True Right ascension
20h 04m 31s
True Declination
0° 00' 00"
Sunlit
Object was in full shadow at epoch
Visualization orbit readout
Latitude
Unknown
Longitude
Unknown
Altitude
Unknown
Speed
Unknown
Apparent Right ascension
Unknown
Apparent Declination
Unknown
Sunlit
N/A
Visualization observer readout
Local Sidereal Time
21:38:08
Azimuth
Unknown
Elevation
Unknown
Doppler factor
Unknown
Orbital elements
Apogee altitude
540.773 km
Perigee altitude
539.242 km
Semi-major axis
6,918.144 km
Eccentricity
0.00011
Inclination
53.1602°
RAAN
301.1296°
Arg. of periapsis
78.4169°
True anomaly
281.68218°
Mean anomaly
281.6946°
Eccentric anomaly
281.68839°
Mean motion
3.77189 °/min
Orbital period
95.44 mins
BSTAR
0.000038542
Loading maneuver chart data...
Computing Atmospheric mass density...
Loading historical data...
Loading historical data...
Loading historical data...
Loading historical data...
Loading historical data...
Loading historical data...
Loading historical data...

Documentation

Showing up to 5 results
|